PBO Station Position Time Series. Reference Frame : NAM14
Format Version,1.1.1
4-character ID,P261
Station name,HunterHillCN2004
Begin Date, 2004-06-04
End Date, 2023-06-26
Release Date, 2023-06-27
Reference position, 38.1529603156 North Latitude, -122.2175403782 East Longitude, 118.16865 meters elevation,
Date, North (mm), East (mm), Vertical (mm), North Std. Deviation (mm), East Std. Deviation (mm),              Vertical Std. Deviation (mm), Quality,
2004-06-04,0.00, 0.00, 0.00, 2.04, 1.62, 7.39, repro,
2004-06-05,0.44, -1.26, 11.65, 2.04, 1.63, 7.44, repro,
2004-06-06,0.23, -1.54, 7.61, 2.03, 1.62, 7.44, repro,
2004-06-07,0.93, -4.24, 17.33, 2.03, 1.62, 7.38, repro,
2004-06-08,0.20, -0.36, 10.18, 2.08, 1.64, 7.52, repro,
2004-06-09,-0.23, -0.62, 5.51, 2.04, 1.62, 7.40, repro,
2004-06-10,0.65, 0.73, 7.86, 2.04, 1.62, 7.35, repro,
2004-06-11,-0.38, -1.08, 10.30, 2.04, 1.63, 7.45, repro,
2004-06-12,-0.72, -1.04, 15.78, 2.03, 1.62, 7.42, repro,
2004-06-13,-0.04, -1.57, 11.55, 2.07, 1.63, 7.46, repro,
2004-06-14,0.17, -0.45, 3.40, 2.08, 1.66, 7.55, repro,
2004-06-15,0.15, 0.54, 5.46, 2.17, 1.69, 7.68, repro,
2004-06-16,-0.31, -0.50, 1.76, 2.09, 1.65, 7.58, repro,
2004-06-17,0.09, 0.47, 2.04, 2.07, 1.68, 7.67, repro,
2004-06-18,0.60, 0.46, 2.21, 2.17, 1.69, 7.76, repro,
2004-06-19,0.72, 0.37, 3.91, 2.09, 1.64, 7.54, repro,
2004-06-20,-0.69, 1.18, 3.37, 2.04, 1.62, 7.36, repro,
2004-06-21,-1.56, -0.47, 6.49, 2.10, 1.66, 7.60, repro,
2004-06-22,-0.45, -0.49, 14.79, 2.16, 1.71, 7.80, repro,
2004-06-23,-0.09, 0.76, 4.11, 2.10, 1.68, 7.65, repro,
2004-06-24,-0.05, 0.93, 2.48, 2.05, 1.65, 7.53, repro,
2004-06-25,0.97, 0.30, 1.39, 2.17, 1.68, 7.94, repro,
2004-06-26,-0.15, 0.99, 5.41, 2.15, 1.70, 7.72, repro,
2004-06-27,0.42, 0.25, 5.08, 2.21, 1.73, 7.89, repro,
2004-06-28,1.15, 1.08, 3.82, 2.26, 1.81, 8.10, repro,
2004-06-29,0.16, -0.74, 1.60, 2.31, 1.85, 8.23, repro,
2004-06-30,2.61, 0.55, 3.00, 2.32, 1.83, 8.34, repro,
2004-07-01,-0.13, 0.06, 4.46, 2.10, 1.67, 7.51, repro,
2004-07-02,1.21, 0.52, -1.81, 2.16, 1.71, 7.78, repro,
2004-07-03,1.20, 0.50, -7.75, 2.14, 1.71, 7.77, repro,
2004-07-04,0.40, -0.90, 3.58, 2.11, 1.69, 7.64, repro,
2004-07-05,0.83, -0.96, 4.43, 2.09, 1.67, 7.58, repro,
2004-07-06,0.58, 0.09, 2.78, 2.03, 1.64, 7.40, repro,
2004-07-07,0.63, 1.20, 1.55, 2.21, 1.74, 7.88, repro,
2004-07-08,-0.11, 0.87, 10.80, 2.10, 1.67, 7.64, repro,
2004-07-09,1.85, 0.18, 10.62, 2.27, 1.74, 8.10, repro,
2004-07-10,0.58, -0.06, 5.86, 2.07, 1.63, 7.44, repro,
2004-07-11,0.60, 0.01, 1.64, 2.25, 1.71, 7.98, repro,
2004-07-12,0.93, 0.55, 1.21, 2.15, 1.67, 7.64, repro,
2004-07-13,2.53, 0.86, 3.13, 2.09, 1.64, 7.55, repro,
2004-07-14,1.22, -0.46, 9.23, 2.14, 1.66, 7.71, repro,
2004-07-15,1.73, 0.69, -1.14, 2.07, 1.63, 7.50, repro,
2004-07-16,2.07, -0.73, 5.93, 2.49, 2.06, 9.00, repro,
2004-07-17,2.25, -0.14, 6.32, 2.10, 1.66, 7.68, repro,
2004-07-18,4.29, 2.32, 0.96, 2.01, 1.62, 7.36, repro,
2004-07-19,3.17, 1.89, 1.30, 2.08, 1.70, 7.63, repro,
2004-07-20,1.05, -0.08, 10.16, 2.02, 1.66, 7.47, repro,
2004-07-21,1.94, 0.65, -0.68, 2.01, 1.63, 7.32, repro,
2004-07-22,1.52, 0.53, 3.46, 2.05, 1.71, 7.57, repro,
2004-07-23,1.01, 0.56, 1.52, 2.00, 1.63, 7.34, repro,
2004-07-24,0.73, -1.62, 9.72, 2.00, 1.62, 7.32, repro,
2004-07-25,1.63, -0.70, 3.99, 2.02, 1.62, 7.34, repro,
2004-07-26,0.92, -1.31, 6.55, 2.02, 1.66, 7.39, repro,
2004-07-27,1.63, -0.68, 1.34, 2.00, 1.62, 7.30, repro,
2004-07-28,2.41, 0.29, 4.42, 1.98, 1.62, 7.28, repro,
2004-07-29,2.43, 0.68, 4.13, 2.00, 1.63, 7.30, repro,
2004-07-30,1.57, -0.56, 7.64, 2.00, 1.62, 7.30, repro,
2004-07-31,2.13, -0.63, 5.16, 1.98, 1.61, 7.23, repro,
2004-08-01,1.32, -0.27, 2.06, 1.99, 1.61, 7.21, repro,
2004-08-02,1.74, 0.26, 2.60, 2.08, 1.72, 7.67, repro,
2004-08-03,1.87, -0.57, 8.51, 2.04, 1.63, 7.35, repro,
2004-08-04,1.63, -0.31, 8.47, 2.05, 1.62, 7.38, repro,
2004-08-05,1.68, -0.74, 9.43, 2.03, 1.66, 7.47, repro,
2004-08-06,2.16, 0.97, -2.07, 2.02, 1.65, 7.39, repro,
2004-08-07,1.12, -0.07, 7.05, 1.99, 1.63, 7.29, repro,
2004-08-08,1.59, -0.56, 3.27, 1.98, 1.61, 7.22, repro,
2004-08-09,1.48, -1.50, 6.46, 1.99, 1.62, 7.27, repro,
2004-08-10,1.64, -0.19, 1.75, 2.00, 1.62, 7.30, repro,
2004-08-11,1.58, -0.48, -4.20, 2.07, 1.65, 7.48, repro,
2004-08-12,-0.11, -0.97, 5.42, 2.04, 1.66, 7.43, repro,
2004-08-13,3.08, 0.25, -0.67, 2.03, 1.66, 7.39, repro,
2004-08-14,2.80, -1.08, 9.66, 2.04, 1.69, 7.51, repro,
2004-08-15,2.93, 0.41, 2.49, 2.02, 1.63, 7.39, repro,
2004-08-16,2.04, 0.49, -4.58, 2.11, 1.72, 7.72, repro,
2004-08-17,2.31, 0.27, 3.60, 2.00, 1.61, 7.25, repro,
2004-08-18,2.91, -0.38, 8.74, 2.00, 1.62, 7.28, repro,
2004-08-19,1.91, 0.65, -2.07, 1.99, 1.63, 7.29, repro,
2004-08-20,1.57, -0.31, 5.09, 2.00, 1.62, 7.27, repro,
2004-08-21,2.56, 0.32, 3.60, 2.01, 1.63, 7.35, repro,
2004-08-22,0.79, 0.78, 10.65, 2.00, 1.61, 7.25, repro,
2004-08-23,3.03, 1.24, 3.91, 2.04, 1.66, 7.39, repro,
2004-08-24,3.39, -0.00, 5.18, 2.03, 1.66, 7.36, repro,
2004-08-25,1.15, -0.61, 13.05, 2.12, 1.75, 7.81, repro,
2004-08-26,4.08, -2.16, 1.40, 2.06, 1.67, 7.49, repro,
2004-08-27,1.44, -0.22, 1.53, 2.07, 1.63, 7.38, repro,
2004-08-28,0.46, -0.26, 8.56, 2.06, 1.72, 7.50, repro,
2004-08-29,2.57, -0.25, 4.68, 2.15, 1.75, 7.69, repro,
2004-08-30,1.65, 0.07, 3.66, 2.12, 1.75, 7.73, repro,
2004-08-31,3.79, 2.29, 3.57, 2.08, 1.72, 7.65, repro,
2004-09-01,2.15, -0.49, 4.98, 2.06, 1.68, 7.56, repro,
2004-09-02,3.08, -0.20, 7.72, 2.06, 1.67, 7.53, repro,
2004-09-03,1.36, -1.68, 9.98, 2.03, 1.65, 7.45, repro,
2004-09-04,0.88, -0.42, 7.66, 2.06, 1.68, 7.53, repro,
2004-09-05,0.72, -0.12, 7.95, 2.18, 1.80, 8.04, repro,
2004-09-06,1.60, -0.00, 5.22, 2.06, 1.68, 7.59, repro,
2004-09-07,1.91, 0.26, 8.29, 2.01, 1.63, 7.34, repro,
2004-09-08,1.55, 0.89, 1.36, 2.15, 1.70, 7.67, repro,
2004-09-09,1.36, -0.53, 3.95, 2.14, 1.68, 7.58, repro,
2004-09-10,2.82, 0.55, 3.28, 2.06, 1.67, 7.49, repro,
2004-09-11,3.47, -1.15, 3.58, 2.01, 1.63, 7.33, repro,
2004-09-12,2.21, 0.28, 2.30, 2.03, 1.64, 7.40, repro,
2004-09-13,3.84, 0.28, 3.83, 2.06, 1.65, 7.48, repro,
2004-09-14,2.00, 0.45, 11.68, 2.03, 1.63, 7.38, repro,
2004-09-15,1.43, -0.78, 9.82, 2.06, 1.68, 7.52, repro,
2004-09-16,2.08, -0.91, 7.37, 2.02, 1.63, 7.32, repro,
2004-09-17,1.32, -1.55, 14.27, 2.05, 1.68, 7.50, repro,
2004-09-18,1.87, -0.88, 4.71, 2.05, 1.68, 7.50, repro,
2004-09-19,2.59, -0.45, 10.88, 2.02, 1.64, 7.37, repro,
2004-09-20,1.54, -1.26, 8.77, 2.04, 1.67, 7.45, repro,
2004-09-21,1.49, -0.22, 3.46, 2.00, 1.63, 7.26, repro,
2004-09-22,1.96, -0.20, -0.74, 2.13, 1.68, 7.56, repro,
2004-09-23,2.85, 0.38, 1.34, 2.11, 1.69, 7.53, repro,
2004-09-24,2.21, 0.02, 8.08, 2.08, 1.68, 7.51, repro,
2004-09-25,3.19, -0.28, 4.87, 2.04, 1.68, 7.46, repro,
2004-09-26,3.34, 0.71, -3.20, 2.00, 1.63, 7.26, repro,
2004-09-27,3.32, -0.04, 3.78, 2.03, 1.66, 7.33, repro,
2004-09-28,3.18, -0.18, 7.25, 2.04, 1.66, 7.38, repro,
2004-09-29,1.63, -0.14, 6.45, 1.99, 1.62, 7.20, repro,
2004-09-30,1.55, 0.25, 3.91, 1.99, 1.61, 7.18, repro,
2004-10-01,2.68, -0.40, 2.77, 1.99, 1.62, 7.21, repro,
2004-10-02,2.73, -0.53, 3.77, 1.99, 1.62, 7.21, repro,
2004-10-03,3.22, -0.10, -2.36, 1.99, 1.61, 7.19, repro,
2004-10-04,1.83, -0.85, 0.58, 1.99, 1.61, 7.18, repro,
2004-10-05,3.04, -0.02, -5.43, 1.98, 1.62, 7.19, repro,
2004-10-06,2.10, -0.50, 6.59, 1.99, 1.62, 7.24, repro,
2004-10-07,4.54, 0.74, -1.28, 1.99, 1.64, 7.29, repro,
2004-10-08,3.74, -1.01, 3.58, 2.03, 1.67, 7.41, repro,
2004-10-09,1.65, -0.76, 8.85, 2.12, 1.77, 7.85, repro,
2004-10-10,3.34, -1.36, 1.31, 2.01, 1.65, 7.32, repro,
2004-10-11,2.01, -0.69, 12.03, 2.04, 1.67, 7.45, repro,
2004-10-12,2.57, -1.01, -0.81, 2.02, 1.66, 7.37, repro,
2004-10-13,2.88, 0.58, 5.56, 2.03, 1.67, 7.41, repro,
2004-10-14,2.25, -0.02, 1.61, 2.00, 1.62, 7.25, repro,
2004-10-15,1.29, 0.11, 4.77, 2.07, 1.66, 7.43, repro,
2004-10-16,3.15, -1.45, 4.33, 2.00, 1.63, 7.28, repro,
2004-10-17,0.59, -2.13, 12.36, 1.99, 1.62, 7.21, repro,
2004-10-18,1.24, -1.01, 7.91, 2.04, 1.66, 7.49, repro,
2004-10-19,1.94, -0.41, 2.97, 2.07, 1.68, 7.43, repro,
2004-10-20,2.49, -0.59, 11.47, 2.11, 1.69, 7.61, repro,
2004-10-21,1.77, -1.01, 2.53, 2.10, 1.65, 7.60, repro,
2004-10-22,2.17, -0.74, 7.07, 2.08, 1.67, 7.53, repro,
2004-10-23,3.04, -0.17, 4.35, 2.09, 1.68, 7.54, repro,
2004-10-24,3.51, -1.17, 5.11, 2.03, 1.66, 7.45, repro,
2004-10-25,2.32, -0.77, 9.36, 2.04, 1.65, 7.43, repro,
2004-10-26,2.91, 0.00, 4.35, 2.10, 1.67, 7.54, repro,
2004-10-27,1.67, -0.99, 6.82, 2.15, 1.68, 7.76, repro,
2004-10-28,2.60, -0.87, 7.59, 2.05, 1.69, 7.62, repro,
2004-10-29,1.89, 0.07, -1.32, 2.06, 1.70, 7.65, repro,
2004-10-30,3.83, 1.02, 9.01, 2.08, 1.71, 7.67, repro,
2004-10-31,3.62, -0.07, 0.98, 2.04, 1.66, 7.48, repro,
2004-11-01,2.97, -0.40, -3.83, 2.08, 1.70, 7.64, repro,
2004-11-02,1.20, -0.17, 4.11, 2.04, 1.67, 7.37, repro,
2004-11-03,3.57, 0.66, -0.78, 2.09, 1.73, 7.74, repro,
2004-11-04,1.67, 0.02, 3.80, 2.03, 1.68, 7.40, repro,
2004-11-05,3.07, -0.39, 4.32, 2.13, 1.79, 7.90, repro,
2004-11-06,2.44, -1.01, 3.50, 2.13, 1.78, 7.85, repro,
2004-11-07,1.92, -0.76, -4.49, 2.07, 1.72, 7.60, repro,
2004-11-08,1.72, -2.02, -0.66, 2.23, 1.87, 8.38, repro,
2004-11-09,2.84, -0.85, 6.20, 2.06, 1.72, 7.65, repro,
2004-11-10,2.71, -0.29, -11.66, 2.20, 1.79, 8.19, repro,
2004-11-11,2.10, 0.51, 0.62, 2.00, 1.64, 7.24, repro,
2004-11-12,2.39, -1.77, -0.91, 2.06, 1.71, 7.61, repro,
2004-11-13,2.53, 0.28, -4.05, 1.99, 1.64, 7.26, repro,
2004-11-14,3.30, -0.97, -11.32, 2.02, 1.68, 7.43, repro,
2004-11-15,0.88, 0.40, -5.39, 2.01, 1.66, 7.34, repro,
2004-11-16,0.72, -1.23, -1.64, 2.08, 1.74, 7.64, repro,
2004-11-17,0.37, -1.56, 1.39, 2.01, 1.67, 7.37, repro,
2004-11-18,1.87, -1.74, 1.02, 2.00, 1.67, 7.37, repro,
2004-11-19,2.30, -0.54, 2.80, 2.10, 1.77, 7.77, repro,
2004-11-20,2.16, -1.39, 5.36, 2.04, 1.69, 7.49, repro,
2004-11-21,0.52, -2.69, 3.89, 2.20, 1.80, 8.05, repro,
2004-11-22,3.09, 0.12, -1.67, 2.05, 1.71, 7.58, repro,
2004-11-23,2.39, -1.88, 1.32, 2.04, 1.68, 7.49, repro,
2004-11-24,0.91, -2.73, 5.31, 2.08, 1.71, 7.74, repro,
2004-11-25,2.08, -2.06, 8.09, 2.14, 1.83, 7.90, repro,
2004-11-26,2.14, -1.24, 4.87, 2.15, 1.83, 7.95, repro,
2004-11-27,2.27, -2.50, 7.28, 2.05, 1.73, 7.59, repro,
2004-11-28,0.38, 0.26, 0.33, 2.00, 1.69, 7.41, repro,
2004-11-29,2.51, -0.87, -4.63, 1.96, 1.63, 7.20, repro,
2004-11-30,2.45, -0.46, -5.92, 1.98, 1.65, 7.25, repro,
2004-12-01,2.21, -1.94, -0.15, 2.08, 1.69, 7.57, repro,
2004-12-02,0.90, -0.78, 0.11, 2.05, 1.66, 7.45, repro,
2004-12-03,1.74, -0.82, -2.06, 2.16, 1.74, 7.85, repro,
2004-12-04,2.07, -0.84, 4.07, 2.00, 1.68, 7.44, repro,
2004-12-05,1.27, -1.17, 5.22, 2.01, 1.68, 7.44, repro,
2004-12-06,2.64, -0.72, 4.32, 2.09, 1.74, 7.73, repro,
2004-12-07,0.73, -0.97, 12.90, 2.09, 1.72, 7.66, repro,
2004-12-08,2.17, -1.12, 1.69, 2.01, 1.64, 7.33, repro,
2004-12-09,4.38, 0.00, -3.93, 2.01, 1.70, 7.39, repro,
2004-12-10,2.46, -0.15, -6.24, 2.10, 1.77, 7.73, repro,
2004-12-11,1.56, -2.26, -4.63, 2.11, 1.74, 7.80, repro,
2004-12-12,0.57, -2.38, -0.52, 2.07, 1.72, 7.69, repro,
2004-12-13,1.77, -0.32, -2.72, 2.04, 1.65, 7.41, repro,
2004-12-14,2.34, -1.10, -10.47, 2.18, 1.79, 7.86, repro,
2004-12-15,1.28, -1.45, -9.60, 2.07, 1.72, 7.49, repro,
2004-12-16,2.47, -0.60, -1.18, 2.05, 1.66, 7.48, repro,
2004-12-17,3.17, -0.74, -10.71, 1.99, 1.65, 7.26, repro,
2004-12-18,2.78, -0.75, -5.53, 2.08, 1.71, 7.60, repro,
2004-12-19,1.21, -2.95, -2.38, 2.06, 1.66, 7.34, repro,
2004-12-20,3.06, -1.10, -1.04, 2.00, 1.63, 7.24, repro,
2004-12-21,0.36, -1.50, -1.53, 2.02, 1.67, 7.45, repro,
2004-12-22,2.28, -1.94, -11.35, 2.02, 1.65, 7.48, repro,
2004-12-23,2.36, -2.08, -2.09, 1.96, 1.62, 7.17, repro,
2004-12-24,1.98, -1.52, -3.75, 1.97, 1.64, 7.22, repro,
2004-12-25,1.68, -1.83, -0.20, 1.98, 1.64, 7.21, repro,
2004-12-26,0.75, -1.45, 6.87, 2.04, 1.63, 7.31, repro,
2004-12-27,2.85, -2.92, 2.03, 2.08, 1.66, 7.54, repro,
2004-12-28,1.62, -2.52, 0.49, 2.13, 1.69, 7.64, repro,
2004-12-29,1.73, -2.66, -5.35, 2.10, 1.67, 7.53, repro,
2004-12-30,0.64, -2.13, -0.05, 2.21, 1.75, 7.88, repro,
2004-12-31,1.00, -1.44, 7.96, 2.19, 1.79, 7.82, repro,
2005-01-01,1.83, -0.46, 2.46, 2.07, 1.65, 7.50, repro,
2005-01-02,1.40, -1.71, -6.69, 2.14, 1.68, 7.64, repro,
2005-01-03,0.67, -0.63, -6.12, 2.14, 1.68, 7.60, repro,
2005-01-04,0.40, -1.37, -5.78, 2.14, 1.68, 7.61, repro,
2005-01-05,1.06, -1.11, -5.84, 2.06, 1.64, 7.50, repro,
2005-01-06,1.76, -1.46, -0.21, 2.15, 1.77, 7.72, repro,
2005-01-07,1.37, -2.82, 4.53, 2.20, 1.81, 8.06, repro,
2005-01-08,1.27, -0.89, -0.12, 2.07, 1.70, 7.62, repro,
2005-01-09,0.32, -2.60, -5.49, 2.03, 1.64, 7.41, repro,
2005-01-10,1.07, -0.34, -12.77, 2.15, 1.79, 8.10, repro,
2005-01-11,0.04, -1.89, 0.86, 2.13, 1.83, 7.74, repro,
2005-01-12,1.97, -0.64, -3.83, 2.13, 1.79, 7.89, repro,
2005-01-13,1.97, -0.84, -14.52, 2.14, 1.79, 7.97, repro,
2005-01-14,1.22, -0.38, -13.65, 2.15, 1.79, 7.74, repro,
2005-01-15,-0.84, -1.57, -12.92, 2.22, 1.97, 8.24, repro,
2005-01-16,-1.48, -1.49, -11.11, 2.15, 1.76, 7.65, repro,
2005-01-17,1.01, -1.24, -16.77, 2.00, 1.64, 7.33, repro,
2005-01-18,0.94, -1.19, -12.23, 2.10, 1.75, 7.69, repro,
2005-01-19,-1.75, -2.03, -11.52, 2.12, 1.70, 7.60, repro,
2005-01-20,0.21, -2.59, -10.05, 2.11, 1.74, 7.62, repro,
2005-01-21,-0.20, -1.41, -8.27, 2.08, 1.75, 7.77, repro,
2005-01-22,-0.75, -1.83, -1.30, 2.02, 1.70, 7.47, repro,
2005-01-23,-0.21, -2.30, -0.25, 2.03, 1.65, 7.44, repro,
2005-01-24,-0.00, -1.46, -6.26, 2.02, 1.66, 7.45, repro,
2005-01-25,-0.96, -1.33, -1.30, 2.14, 1.82, 8.02, repro,
2005-01-26,-0.38, -0.74, -9.33, 2.07, 1.67, 7.46, repro,
2005-01-27,1.58, -1.00, -3.43, 2.01, 1.63, 7.37, repro,
2005-01-28,2.10, 0.27, -6.64, 2.04, 1.72, 7.60, repro,
2005-01-29,1.01, -0.57, -9.72, 2.02, 1.63, 7.32, repro,
2005-01-30,1.47, -0.49, -13.68, 2.02, 1.66, 7.36, repro,
2005-01-31,1.35, -0.38, -7.60, 2.02, 1.65, 7.36, repro,
2005-02-01,1.83, -0.34, -9.42, 2.03, 1.65, 7.38, repro,
2005-02-02,1.18, -0.12, -5.64, 2.00, 1.61, 7.27, repro,
2005-02-03,0.51, 0.52, -10.49, 2.06, 1.63, 7.40, repro,
2005-02-04,0.77, 0.11, -9.10, 2.00, 1.61, 7.26, repro,
2005-02-05,2.50, -0.68, -10.64, 1.98, 1.59, 7.15, repro,
2005-02-06,1.65, -1.04, -4.80, 1.99, 1.61, 7.20, repro,
2005-02-07,1.23, 0.47, -7.16, 2.00, 1.60, 7.21, repro,
2005-02-08,1.85, -0.38, -6.70, 2.05, 1.65, 7.43, repro,
2005-02-09,1.06, 0.58, -4.77, 2.04, 1.65, 7.43, repro,
2005-02-10,0.88, 0.10, -1.87, 1.99, 1.59, 7.13, repro,
2005-02-11,1.02, -0.69, -2.67, 2.01, 1.60, 7.20, repro,
2005-02-12,1.38, -1.38, 3.22, 2.00, 1.61, 7.20, repro,
2005-02-13,1.05, 0.31, 3.26, 2.01, 1.61, 7.25, repro,
2005-02-14,1.35, -0.89, 0.02, 2.02, 1.61, 7.30, repro,
2005-02-15,-0.51, -0.83, -4.44, 2.01, 1.60, 7.24, repro,
2005-02-16,1.76, -0.57, -6.92, 2.02, 1.61, 7.30, repro,
2005-02-17,0.21, -0.52, -4.34, 2.08, 1.62, 7.41, repro,
2005-02-18,1.12, 0.13, -7.84, 2.01, 1.61, 7.27, repro,
2005-02-19,-0.01, -1.26, -5.07, 2.01, 1.61, 7.28, repro,
2005-02-20,0.29, -0.96, -2.26, 2.01, 1.61, 7.27, repro,
2005-02-21,0.44, 1.85, -12.74, 2.11, 1.70, 7.60, repro,
2005-02-22,0.07, 0.33, -6.45, 2.08, 1.72, 7.59, repro,
2005-02-23,0.75, -0.87, -8.56, 2.06, 1.62, 7.37, repro,
2005-02-24,-0.07, 0.14, -6.20, 2.14, 1.68, 7.62, repro,
2005-02-25,0.24, 0.71, -5.33, 2.07, 1.62, 7.36, repro,
2005-02-26,-0.15, 0.08, -4.63, 2.07, 1.61, 7.32, repro,
2005-02-27,0.73, 0.84, -3.36, 2.07, 1.61, 7.30, repro,
2005-02-28,-0.89, 0.59, -4.59, 2.06, 1.61, 7.33, repro,
2005-03-01,0.26, 0.95, -8.36, 2.08, 1.61, 7.36, repro,
2005-03-02,0.41, 1.27, -7.84, 2.08, 1.61, 7.39, repro,
2005-03-03,0.92, 0.97, -6.23, 2.07, 1.62, 7.35, repro,
2005-03-04,2.13, 0.72, -6.43, 2.13, 1.64, 7.57, repro,
2005-03-05,1.90, 0.15, -10.77, 2.07, 1.60, 7.31, repro,
2005-03-06,0.64, 1.10, -7.07, 2.07, 1.61, 7.35, repro,
2005-03-07,1.12, 2.08, -8.39, 2.07, 1.61, 7.39, repro,
2005-03-08,0.72, 1.66, -9.53, 2.08, 1.61, 7.36, repro,
2005-03-09,0.92, 1.81, -8.32, 2.09, 1.65, 7.48, repro,
2005-03-10,1.12, 2.40, -0.35, 2.09, 1.61, 7.35, repro,
2005-03-11,0.23, 2.34, -2.12, 2.09, 1.60, 7.34, repro,
2005-03-12,-1.91, 0.74, -0.76, 2.06, 1.61, 7.36, repro,
2005-03-13,0.59, 0.77, -9.46, 2.06, 1.61, 7.33, repro,
2005-03-14,0.19, 1.26, -9.88, 2.08, 1.61, 7.37, repro,
2005-03-15,0.47, 1.57, -4.63, 2.09, 1.63, 7.46, repro,
2005-03-16,0.16, 2.11, -4.20, 2.10, 1.64, 7.49, repro,
2005-03-17,0.26, 1.93, -3.29, 2.09, 1.61, 7.46, repro,
2005-03-18,-0.09, 0.95, -1.06, 2.08, 1.61, 7.39, repro,
2005-03-19,0.83, 2.23, -0.33, 2.08, 1.61, 7.40, repro,
2005-03-20,-1.54, 2.06, -3.71, 2.10, 1.63, 7.49, repro,
2005-03-21,0.89, 1.63, -8.79, 2.08, 1.60, 7.36, repro,
2005-03-22,-0.77, 2.14, -3.20, 2.09, 1.60, 7.39, repro,
2005-03-23,-0.37, 2.28, -2.79, 2.08, 1.61, 7.40, repro,
2005-03-24,0.32, 1.34, -2.95, 2.07, 1.60, 7.37, repro,
2005-03-25,-0.01, 1.65, -5.09, 2.07, 1.60, 7.28, repro,
2005-03-26,-0.32, 1.60, -2.64, 2.08, 1.60, 7.34, repro,
2005-03-27,-1.09, 1.39, 4.83, 2.09, 1.60, 7.34, repro,
2005-03-28,-0.08, 1.47, 5.95, 2.08, 1.60, 7.33, repro,
2005-03-29,-0.03, 2.63, -0.14, 2.09, 1.65, 7.45, repro,
2005-03-30,0.60, 1.11, 2.52, 2.07, 1.61, 7.33, repro,
2005-03-31,0.36, 0.98, -7.92, 2.13, 1.63, 7.53, repro,
2005-04-01,1.35, 1.06, -5.76, 2.06, 1.60, 7.29, repro,
2005-04-02,0.81, 1.29, -3.53, 2.07, 1.60, 7.33, repro,
2005-04-03,0.34, 0.66, 11.97, 2.13, 1.60, 7.58, repro,
2005-04-04,-0.67, 3.18, -3.38, 2.22, 1.65, 7.86, repro,
2005-04-05,-0.30, 1.71, -2.98, 2.14, 1.61, 7.69, repro,
2005-04-06,-0.63, 1.64, 1.64, 2.20, 1.68, 7.96, repro,
2005-04-07,-0.25, 1.31, 14.66, 2.09, 1.61, 7.50, repro,
2005-04-08,-0.73, -1.81, 6.86, 2.13, 1.61, 7.68, repro,
2005-04-09,0.18, 0.84, 2.95, 2.13, 1.61, 7.63, repro,
2005-04-10,0.75, 1.39, -1.37, 2.12, 1.60, 7.61, repro,
2005-04-11,-1.60, 0.49, 4.97, 2.15, 1.63, 7.72, repro,
2005-04-12,0.58, 2.26, -0.92, 2.13, 1.60, 7.62, repro,
2005-04-13,0.51, 1.39, 1.02, 2.14, 1.60, 7.64, repro,
2005-04-14,0.04, 1.76, -1.59, 2.22, 1.66, 7.62, repro,
2005-04-15,0.02, 1.02, -1.68, 2.14, 1.63, 7.51, repro,
2005-04-16,0.03, 1.07, 2.57, 2.14, 1.61, 7.59, repro,
2005-04-17,0.13, 0.59, 1.94, 2.10, 1.60, 7.31, repro,
2005-04-18,0.28, 1.13, -2.30, 2.46, 1.88, 8.73, repro,
2005-04-19,-1.39, 1.03, 0.90, 2.09, 1.60, 7.36, repro,
2005-04-20,-0.20, 1.37, -2.72, 2.27, 1.67, 8.04, repro,
2005-04-21,-1.41, 0.42, -0.83, 2.12, 1.62, 7.63, repro,
2005-04-22,-0.81, 1.17, -0.09, 2.09, 1.60, 7.31, repro,
2005-04-23,-1.02, 1.79, 2.43, 2.07, 1.59, 7.23, repro,
2005-04-24,0.42, 2.20, -1.56, 3.51, 2.40, 11.56, repro,
2005-04-26,0.47, 1.56, -2.70, 4.75, 3.27, 16.29, repro,
2005-04-28,7.76, 1.53, 5.35, 10.15, 6.48, 36.31, repro,
2005-04-30,0.70, 1.38, 1.16, 2.13, 1.61, 7.60, repro,
2005-05-01,-0.92, 0.68, 7.02, 2.12, 1.60, 7.60, repro,
2005-05-02,0.09, 1.04, 2.03, 2.09, 1.60, 7.33, repro,
2005-05-03,0.68, 1.27, -0.53, 2.13, 1.69, 7.70, repro,
2005-05-04,0.39, 1.61, -0.20, 2.06, 1.59, 7.24, repro,
2005-05-05,-1.09, 1.74, 2.90, 2.06, 1.59, 7.25, repro,
2005-05-06,0.16, 1.98, -1.96, 2.06, 1.57, 7.21, repro,
2005-05-07,-0.90, 1.51, 1.95, 2.05, 1.58, 7.25, repro,
2005-05-08,0.79, 0.91, 0.83, 2.07, 1.59, 7.33, repro,
2005-05-09,-2.18, -0.08, -5.69, 2.12, 1.66, 7.67, repro,
2005-05-10,-0.36, 1.13, -0.89, 2.12, 1.63, 7.51, repro,
2005-05-11,0.58, 2.09, -1.79, 2.16, 1.67, 7.69, repro,
2005-05-12,0.67, 1.02, -2.03, 2.11, 1.66, 7.64, repro,
2005-05-13,1.28, 0.87, -8.33, 2.15, 1.71, 7.77, repro,
2005-05-14,0.00, 0.58, 0.01, 2.12, 1.71, 7.63, repro,
2005-05-15,0.49, 0.68, -5.52, 2.12, 1.68, 7.54, repro,
2005-05-16,0.49, -0.25, 1.86, 2.10, 1.66, 7.43, repro,
2005-05-17,-0.67, 1.89, 3.15, 2.16, 1.66, 7.52, repro,
2005-05-18,0.83, 1.25, -1.99, 2.16, 1.68, 7.59, repro,
2005-05-19,0.65, -0.14, -2.84, 2.08, 1.65, 7.40, repro,
2005-05-20,0.95, 1.14, -2.84, 2.09, 1.65, 7.42, repro,
2005-05-21,0.53, 0.81, -7.65, 2.10, 1.65, 7.43, repro,
2005-05-22,-0.10, -0.00, -8.86, 2.09, 1.65, 7.43, repro,
2005-05-23,0.17, -0.76, 1.15, 2.08, 1.65, 7.37, repro,
2005-05-24,0.26, -0.32, -5.59, 2.08, 1.65, 7.39, repro,
2005-05-25,0.34, 1.22, -3.46, 2.08, 1.65, 7.41, repro,
2005-05-26,1.19, 0.24, -6.88, 2.43, 1.96, 8.68, repro,
2005-05-27,0.59, -0.65, 0.22, 2.09, 1.63, 7.37, repro,
2005-05-28,0.56, 0.34, 6.09, 2.19, 1.79, 7.87, repro,
2005-05-29,0.55, 1.54, 6.31, 2.08, 1.64, 7.37, repro,
2005-05-30,0.53, 0.57, -5.47, 2.11, 1.66, 7.49, repro,
2005-05-31,1.20, 1.03, -0.36, 2.09, 1.64, 7.43, repro,
2005-06-01,0.56, 0.81, -0.94, 2.07, 1.59, 7.30, repro,
2005-06-02,1.06, 0.82, 1.47, 2.08, 1.59, 7.29, repro,
2005-06-03,1.45, -0.32, 1.37, 2.07, 1.59, 7.25, repro,
2005-06-04,1.23, 0.78, 0.98, 2.06, 1.59, 7.27, repro,
2005-06-05,0.06, -0.57, 6.72, 2.07, 1.60, 7.33, repro,
2005-06-06,1.38, 0.59, 1.75, 2.08, 1.61, 7.34, repro,
2005-06-07,0.62, 1.14, -2.57, 2.07, 1.59, 7.28, repro,
2005-06-08,0.85, -0.58, 6.13, 2.07, 1.60, 7.27, repro,
2005-06-09,0.71, 0.29, -5.11, 2.08, 1.63, 7.38, repro,
2005-06-10,-0.52, 0.65, -0.30, 2.11, 1.65, 7.47, repro,
2005-06-11,-0.33, 0.77, 1.09, 2.13, 1.67, 7.59, repro,
2005-06-12,0.60, 0.75, 6.41, 2.18, 1.70, 7.68, repro,
2005-06-13,1.47, 0.86, -0.72, 2.18, 1.68, 7.61, repro,
2005-06-14,1.14, 0.88, -4.09, 2.16, 1.68, 7.63, repro,
2005-06-15,2.43, -1.73, 8.86, 2.07, 1.60, 7.31, repro,
2005-06-16,0.87, -1.66, 1.58, 2.18, 1.63, 7.56, repro,
2005-06-17,1.24, -0.81, 1.16, 2.16, 1.62, 7.48, repro,
2005-06-18,1.39, -2.00, 0.18, 2.09, 1.61, 7.34, repro,
2005-06-19,1.38, -1.99, -0.66, 2.09, 1.61, 7.35, repro,
2005-06-20,2.56, -2.48, -1.06, 2.07, 1.61, 7.35, repro,
2005-06-21,-0.24, -1.96, 5.70, 2.08, 1.61, 7.34, repro,
2005-06-22,2.94, -2.18, -3.95, 2.08, 1.59, 7.30, repro,
2005-06-23,2.53, -2.39, -0.02, 2.14, 1.63, 7.46, repro,
2005-06-24,3.52, -1.20, 3.75, 2.07, 1.59, 7.28, repro,
2005-06-25,0.99, -1.71, 7.65, 2.06, 1.60, 7.29, repro,
2005-06-26,0.93, -1.86, 3.24, 2.12, 1.63, 7.44, repro,
2005-06-27,1.09, -2.09, 2.58, 2.06, 1.59, 7.20, repro,
2005-06-28,3.14, -1.80, 2.16, 2.15, 1.63, 7.47, repro,
2005-06-29,2.86, -1.85, 3.38, 2.08, 1.59, 7.29, repro,
2005-06-30,2.63, -1.40, 0.79, 2.06, 1.59, 7.26, repro,
2005-07-01,1.57, -2.70, 2.73, 2.06, 1.59, 7.24, repro,
2005-07-02,0.79, -2.52, 2.27, 2.06, 1.59, 7.22, repro,
2005-07-03,0.79, -2.09, 2.65, 2.06, 1.60, 7.25, repro,
2005-07-04,1.36, -3.54, 0.90, 2.06, 1.59, 7.26, repro,
2005-07-05,1.34, -2.29, 2.92, 2.06, 1.60, 7.29, repro,
2005-07-06,3.44, -2.09, 2.05, 2.06, 1.60, 7.28, repro,
2005-07-07,3.10, -2.77, -0.90, 2.44, 1.97, 8.84, repro,
2005-07-08,2.62, -1.50, 2.93, 2.06, 1.60, 7.24, repro,
2005-07-09,0.62, -1.70, 3.26, 2.08, 1.62, 7.36, repro,
2005-07-10,2.62, -0.15, 5.24, 2.08, 1.61, 7.35, repro,
2005-07-11,3.53, -3.01, 2.24, 2.07, 1.61, 7.34, repro,
2005-07-12,1.37, -3.15, 1.58, 2.06, 1.60, 7.25, repro,
2005-07-13,2.04, -1.89, -0.30, 2.06, 1.59, 7.23, repro,
2005-07-14,0.69, -2.34, 6.71, 2.10, 1.65, 7.47, repro,
2005-07-15,1.45, -2.16, 7.10, 2.05, 1.59, 7.25, repro,
2005-07-16,2.20, -2.47, 0.68, 2.07, 1.60, 7.28, repro,
2005-07-17,2.10, -2.69, -0.29, 2.06, 1.59, 7.26, repro,
2005-07-18,0.33, -1.20, 2.24, 2.06, 1.60, 7.24, repro,
2005-07-19,2.36, -3.01, 8.07, 2.06, 1.60, 7.27, repro,
2005-07-20,2.82, -2.28, -4.38, 2.05, 1.59, 7.22, repro,
2005-07-21,2.84, -0.75, 4.51, 2.08, 1.61, 7.38, repro,
2005-07-22,2.64, -2.35, 11.36, 2.08, 1.61, 7.36, repro,
2005-07-23,1.53, -2.73, 0.22, 2.06, 1.60, 7.26, repro,
2005-07-24,3.02, -1.19, 1.63, 2.16, 1.71, 7.70, repro,
2005-07-25,3.19, -1.30, 4.08, 2.09, 1.63, 7.43, repro,
2005-07-26,2.51, -2.52, 3.15, 2.12, 1.70, 7.59, repro,
2005-07-27,2.54, -2.24, 0.96, 2.14, 1.70, 7.58, repro,
2005-07-28,1.93, -0.76, 0.84, 2.16, 1.71, 7.71, repro,
2005-07-29,1.93, -0.32, -0.59, 2.11, 1.63, 7.47, repro,
2005-07-30,2.82, -1.78, -1.60, 2.09, 1.64, 7.49, repro,
2005-07-31,2.77, -2.10, -1.20, 2.08, 1.64, 7.43, repro,
2005-08-01,1.53, -2.10, 5.25, 2.10, 1.64, 7.53, repro,
2005-08-02,2.76, -1.22, 0.86, 2.11, 1.63, 7.48, repro,
2005-08-03,2.01, -2.65, 7.24, 2.08, 1.61, 7.36, repro,
2005-08-04,1.53, -3.05, 4.75, 2.07, 1.60, 7.31, repro,
2005-08-05,3.02, -2.98, -0.83, 2.06, 1.60, 7.32, repro,
2005-08-06,2.06, -2.88, 1.75, 2.05, 1.60, 7.24, repro,